SL-8 DEB, 1480

Orbit data source: Space-Track

SL-8 DEB, 1480 is space debris in LEO originally from a launch on Mon, 15 Mar 1965 UTC launched from the Tyuratam Missile And Space Complex (TTMTR). Debris objects in space refer to the collection of defunct objects orbiting the Earth. Examples of debris include non-operational satellites, rocket bodies, and fragments generated from explosions, collisions, or faulty payload assembly.

Loading next visibility...
Identifier
1480, 1965-020BE
Orbit
LEO
Last TLE update
23 hours ago
Origin
Manufacturer
Unknown
Mission
Spacecraft
Bus & Motor
Unknown
Mass
Unknown
Launch date (UTC)
1965-03-15 (60 years ago)
Launch vehicle
Unknown
Launch site
Tyuratam Missile And Space Complex (TTMTR)
Object type
Payload
Rocket body
Debris
Shape & HBR
Unknown
Radar Cross Section
Medium (>0.1 m² and <1 m²)

Expand to show TLE details & history

TLE from 23 hours ago
0 SL-8 DEB
1 01480U 65020BE  25114.87640913  .00000071  00000-0  22996-3 0  9996
2 01480  56.0722  71.7795 0836590 217.1102 136.9077 12.64268516757214
Epoch: 2025-04-24T21:02Z
Definitive object data (Epoch: 2025-04-24T21:02:01.748Z)
Latitude
-0.00002°
Longitude
-96.86935°
Altitude
1,905.166 km
Speed
6.713 km/s
True Right ascension
04h 47m 07s
True Declination
0° 00' 00"
Sunlit
Object was in daylight at TLE epoch
Visualization TLE readout
Latitude
-5.92845°
Longitude
-103.51651°
Altitude
1,834.722 km
Speed
6.774 km/s
Apparent Right ascension
06h 00m 12s
Apparent Declination
-51° 24' 09"
Sunlit
Object is in daylight
Visualization observer readout
Local Sidereal Time
03:01:38
Azimuth
153.631° SSE
Elevation
-9.267°
Doppler factor
1
Orbital elements
Apogee altitude
2,056.339 km
Perigee altitude
754.048 km
Semi-major axis
7,783.33 km
Eccentricity
0.083659
Inclination
56.0722°
RAAN
71.7795°
Arg. of periapsis
217.1102°
True anomaly
142.97994°
Mean anomaly
136.9077°
Eccentric anomaly
139.98945°
Mean motion
3.16079 °/min
BSTAR
0.00022996
Orbital period
113.9 mins
Loading maneuver chart data...
Loading SW <> Apogee altitude chart data...
Loading historical data...
Loading historical data...
Loading historical data...
Loading historical data...
Loading historical data...
Loading historical data...
Loading historical data...

SL-8 DEB Visibility forecast

Observer location: undefined°, undefined°

Span
Click to sort rows by Start time (UTC) header in descending order
Start Az.
Max El. time (UTC)
Max El. Az.
Max El.
End time (UTC)
End Az.
20 mins2025-04-25 21:46:49.123Z179.354° S2025-04-25 21:56:49.123Z117.177° SE32.522°2025-04-25 22:06:49.123Z57.248° ENE
22 mins2025-04-25 23:44:49.123Z230.728° WSW2025-04-25 23:55:49.123Z319.534° NNW44.463°2025-04-26 00:06:49.123Z44.634° NE
19 mins2025-04-26 01:46:49.123Z275.744° WNW2025-04-26 01:56:49.123Z337.914° N32.688°2025-04-26 02:05:49.123Z44.076° NE
16 mins2025-04-26 03:50:49.123Z309.542° NW2025-04-26 03:59:49.123Z10.66° NNE28.496°2025-04-26 04:06:49.123Z65.28° ENE
16 mins2025-04-26 05:51:49.123Z317.682° NNW2025-04-26 06:00:49.123Z31.993° NE39.788°2025-04-26 06:07:49.123Z109.875° ESE
13 mins2025-04-26 07:52:49.123Z302.709° NW2025-04-26 07:59:49.123Z235.802° WSW34.784°2025-04-26 08:05:49.123Z170.547° S
|